Location: Alpha Ridge Park
(39.3209°N, 76.9128°W)
Time: 11:13:02
(UTC-04:00)

S-56A Canister/Altair - Pass Details

Date: 27 May 2019
Orbit: 633 x 2499 km, 38.9° (Epoch: 15 June)

Event Time Altitude Azimuth Distance (km) Brightness Sun altitude
Rises 23:59:07 0° 210° (SSW) 2,952 - -27.5°
Reaches altitude 10° 00:01:38 10° 195° (SSW) 2,131 - -27.7°
Maximum altitude 00:05:29 24° 142° (SE) 1,596 - -27.9°
Drops below altitude 10° 00:10:13 10° 90° (E) 2,689 - -28.1°
Exits shadow 00:11:03 - 87° (E) 2,967 10.4 -28.1°
Sets 00:13:50 0° 78° (ENE) 3,949 11.2 -28.3°
